WB9TLH-12 Weather Reports


time (UTC)temp
F
wind
direction
speed
knots
gust
knots
rain 1hr
in
rain 24hr
in
rain mn
in
humidity
%
barometer
mb
20260905172737 90 0 0.0 0.0 0.00 0.00 0.00 55 1010.5
20260905172236 90 221 0.0 0.0 0.00 0.00 0.00 56 1010.5
20260905171736 89 176 0.0 0.0 0.00 0.00 0.00 55 1010.6
20260905171236 89 177 0.0 0.0 0.00 0.00 0.00 56 1010.7
20260905170735 88 201 0.0 0.0 0.00 0.00 0.00 56 1010.8
20260905170235 89 202 0.0 0.0 0.00 0.00 0.00 55 1010.9
20260905165735 89 0 0.0 0.0 0.00 0.00 0.00 55 1011.0
20260905165234 89 205 0.0 0.0 0.00 0.00 0.00 55 1011.1
20260905164734 89 78 0.0 0.0 0.00 0.00 0.00 55 1011.2
20260905164234 89 130 0.0 0.0 0.00 0.00 0.00 55 1011.3
20260905163734 89 136 0.0 0.0 0.00 0.00 0.00 55 1011.2
20260905163233 88 188 0.0 0.0 0.00 0.00 0.00 56 1011.2
20260905162733 88 150 0.0 0.0 0.00 0.00 0.00 55 1011.3
20260905162233 87 155 0.0 0.0 0.00 0.00 0.00 56 1011.1
20260905161732 87 168 0.0 0.0 0.00 0.00 0.00 56 1011.2
20260905161232 87 144 0.0 0.0 0.00 0.00 0.00 57 1011.2
20260905160732 87 142 0.0 0.0 0.00 0.00 0.00 57 1011.1
20260905160232 86 170 0.0 0.0 0.00 0.00 0.00 56 1011.1
20260905155731 86 138 0.0 0.0 0.00 0.00 0.00 57 1011.2
20260905155231 86 0 0.0 0.0 0.00 0.00 0.00 57 1011.4
20260905154731 86 122 0.0 0.0 0.00 0.00 0.00 58 1011.6
20260905154230 85 173 0.0 0.0 0.00 0.00 0.00 58 1011.7
20260905153730 84 161 0.0 0.0 0.00 0.00 0.00 59 1011.7
20260905153230 84 103 0.0 0.0 0.00 0.00 0.00 59 1011.7
20260905152730 83 0 0.0 0.0 0.00 0.00 0.00 60 1011.5
20260905152229 83 139 0.0 0.0 0.00 0.00 0.00 60 1011.5
20260905151729 83 113 0.0 0.0 0.00 0.00 0.00 61 1011.4
20260905151229 83 133 0.0 0.0 0.00 0.00 0.00 61 1011.5
20260905150728 83 0 0.0 0.0 0.00 0.00 0.00 61 1011.5
20260905150228 83 67 0.0 0.0 0.00 0.00 0.00 61 1011.5
20260905145728 82 143 0.0 0.0 0.00 0.00 0.00 64 1011.4
20260905145227 82 0 0.0 0.0 0.00 0.00 0.00 64 1011.5
20260905144727 82 101 0.0 0.0 0.00 0.00 0.00 64 1011.6
20260905144227 81 125 0.0 0.0 0.00 0.00 0.00 65 1011.7
20260905143727 81 106 0.0 0.0 0.00 0.00 0.00 65 1011.7
20260905143226 81 86 0.0 0.0 0.00 0.00 0.00 66 1011.8
20260905142726 80 102 0.0 0.0 0.00 0.00 0.00 66 1011.9
20260905142226 80 95 0.0 0.0 0.00 0.00 0.00 66 1012.0
20260905141725 80 94 0.0 0.0 0.00 0.00 0.00 67 1012.0
20260905141225 80 97 0.0 0.0 0.00 0.00 0.00 66 1011.9
20260905140725 80 110 0.0 0.0 0.00 0.00 0.00 67 1011.8
20260905140225 80 119 0.0 0.0 0.00 0.00 0.00 67 1011.9
20260905135724 79 124 0.0 0.0 0.00 0.00 0.00 68 1011.8
20260905135224 79 102 0.0 0.0 0.00 0.00 0.00 70 1011.8
20260905134724 78 127 0.0 0.0 0.00 0.00 0.00 71 1011.8
20260905134223 78 88 0.0 0.0 0.00 0.00 0.00 71 1012.0
20260905133723 78 92 0.0 0.0 0.00 0.00 0.00 72 1012.1
20260905133223 77 92 0.0 0.0 0.00 0.00 0.00 75 1011.9
20260905132723 77 55 0.0 0.0 0.00 0.00 0.00 76 1012.1
20260905132222 77 72 0.0 0.0 0.00 0.00 0.00 76 1012.1
20260905131722 77 109 0.0 0.0 0.00 0.00 0.00 77 1012.1
20260905131222 76 68 0.0 0.0 0.00 0.00 0.00 79 1012.0
20260905130721 76 90 0.0 0.0 0.00 0.00 0.00 80 1012.0
20260905130221 76 92 0.0 0.0 0.00 0.00 0.00 80 1011.9
20260905125721 76 70 0.0 0.0 0.00 0.00 0.00 81 1011.9
20260905125220 76 100 0.0 0.0 0.00 0.00 0.00 82 1011.9
20260905124720 76 62 0.0 0.0 0.00 0.00 0.00 82 1011.8
20260905124220 76 82 0.0 0.0 0.00 0.00 0.00 82 1011.8
20260905123720 76 17 0.0 0.0 0.00 0.00 0.00 84 1011.6
20260905123219 76 85 0.0 0.0 0.00 0.00 0.00 84 1011.7
20260905122719 77 65 0.0 0.0 0.00 0.00 0.00 83 1011.7
20260905122219 78 100 0.0 0.0 0.00 0.00 0.00 82 1011.7
20260905121718 79 68 0.0 0.0 0.00 0.00 0.00 80 1011.6
20260905121218 80 28 0.0 0.0 0.00 0.00 0.00 76 1010.9
20260905120718 80 28 0.0 0.0 0.00 0.00 0.00 76 1011.0
20260905120218 80 295 0.0 0.0 0.00 0.00 0.00 73 1010.8
20260905115717 80 282 0.0 0.0 0.00 0.00 0.00 74 1010.6
20260905115217 80 283 0.0 0.0 0.00 0.00 0.00 73 1010.5
20260905114717 80 248 0.0 0.0 0.00 0.00 0.00 74 1010.4
20260905114216 80 245 0.0 0.0 0.00 0.00 0.00 74 1010.5
20260905113716 80 254 0.0 0.0 0.00 0.00 0.00 74 1010.4
20260905113216 80 252 0.0 0.0 0.00 0.00 0.00 75 1010.4
20260905112715 80 287 0.0 0.0 0.00 0.00 0.00 75 1010.3
20260905112215 80 263 0.0 0.0 0.00 0.00 0.00 75 1010.3
20260905111715 80 262 0.0 0.0 0.00 0.00 0.00 75 1010.2
20260905111215 80 283 0.0 0.0 0.00 0.00 0.00 76 1010.2
20260905110714 80 283 0.0 0.0 0.00 0.00 0.00 76 1010.2
20260905110214 80 254 0.0 0.0 0.00 0.00 0.00 76 1010.1
20260905105714 80 248 0.0 0.0 0.00 0.00 0.00 77 1010.0
20260905105213 80 0 0.0 0.0 0.00 0.00 0.00 77 1010.0
20260905104713 80 257 0.0 0.0 0.00 0.00 0.00 77 1010.0
20260905104213 80 247 0.0 0.0 0.00 0.00 0.00 77 1010.1
20260905103713 80 254 0.0 0.0 0.00 0.00 0.00 78 1010.1
20260905103212 80 259 0.0 0.0 0.00 0.00 0.00 78 1010.2
20260905102712 80 259 0.0 0.0 0.00 0.00 0.00 78 1010.3
20260905102212 80 254 0.0 0.0 0.00 0.00 0.00 78 1010.3
20260905101711 80 254 0.0 0.0 0.00 0.00 0.00 78 1010.4
20260905101211 80 257 0.0 0.0 0.00 0.00 0.00 78 1010.3
20260905100711 80 255 0.0 0.0 0.00 0.00 0.00 78 1010.3
20260905100211 80 254 0.0 0.0 0.00 0.00 0.00 78 1010.2
20260905095710 80 257 0.0 0.0 0.00 0.00 0.00 78 1010.2
20260905095210 81 257 0.0 0.0 0.00 0.00 0.00 78 1010.1
20260905094710 81 257 0.0 0.0 0.00 0.00 0.00 78 1010.1
20260905094209 81 258 0.0 0.0 0.00 0.00 0.00 77 1010.1
20260905093709 81 263 0.0 0.0 0.00 0.00 0.00 77 1010.1
20260905093209 81 249 0.0 0.0 0.00 0.00 0.00 77 1010.0
20260905092708 81 265 0.0 0.0 0.00 0.00 0.00 78 1010.0
20260905092208 81 244 0.0 0.0 0.00 0.00 0.00 78 1010.0
20260905091708 81 254 0.0 0.0 0.00 0.00 0.00 78 1010.0
20260905091208 81 0 0.0 0.0 0.00 0.00 0.00 78 1010.0
20260905090707 80 254 0.0 0.0 0.00 0.00 0.00 79 1009.9
20260905090207 80 246 0.0 0.0 0.00 0.00 0.00 79 1009.9
20260905085707 80 254 0.0 0.0 0.00 0.00 0.00 80 1009.8
20260905085206 80 265 0.0 0.0 0.00 0.00 0.00 80 1009.8
20260905084706 80 241 0.0 0.0 0.00 0.00 0.00 80 1009.8
20260905084206 80 242 0.0 0.0 0.00 0.00 0.00 81 1009.8
20260905083706 80 240 0.0 0.0 0.00 0.00 0.00 80 1009.7
20260905083205 80 257 0.0 0.0 0.00 0.00 0.00 80 1009.6
20260905082705 81 225 0.0 0.0 0.00 0.00 0.00 80 1009.6
20260905082205 81 223 0.0 0.0 0.00 0.00 0.00 80 1009.6
20260905081704 81 223 0.0 0.0 0.00 0.00 0.00 80 1009.6
20260905081204 81 196 0.0 0.0 0.00 0.00 0.00 80 1009.5
20260905080704 81 190 0.0 0.0 0.00 0.00 0.00 79 1009.4
20260905080204 81 218 0.0 0.0 0.00 0.00 0.00 79 1009.4
20260905075703 82 244 0.0 0.0 0.00 0.00 0.00 79 1009.4
20260905075203 82 237 0.0 0.0 0.00 0.00 0.00 78 1009.3
20260905074703 82 223 0.0 0.0 0.00 0.00 0.00 78 1009.3
20260905074202 82 207 0.0 0.0 0.00 0.00 0.00 78 1009.4
20260905073702 82 221 0.0 0.0 0.00 0.00 0.00 78 1009.4
20260905073202 82 223 0.0 0.0 0.00 0.00 0.00 78 1009.4
20260905072701 82 214 0.0 0.0 0.00 0.00 0.00 78 1009.4
20260905072201 82 209 0.0 0.0 0.00 0.00 0.00 78 1009.4
20260905071701 82 197 0.0 0.0 0.00 0.00 0.00 78 1009.7
20260905071201 82 193 0.0 0.0 0.00 0.00 0.00 78 1009.7
20260905070700 82 189 0.0 0.0 0.00 0.00 0.00 78 1009.7
20260905070200 82 188 0.0 0.0 0.00 0.00 0.00 78 1009.8
20260905065700 82 188 0.0 0.0 0.00 0.00 0.00 78 1009.9
20260905065159 82 188 0.0 0.0 0.00 0.00 0.00 78 1010.1
20260905064659 82 188 0.0 0.0 0.00 0.00 0.00 78 1010.1
20260905064159 82 188 0.0 0.0 0.00 0.00 0.00 78 1010.1
20260905063659 82 187 0.0 0.0 0.00 0.00 0.00 78 1010.2
20260905063158 83 188 0.0 0.0 0.00 0.00 0.00 78 1010.2
20260905062658 83 184 0.0 0.0 0.00 0.00 0.00 78 1010.3
20260905062158 83 183 0.0 0.0 0.00 0.00 0.00 78 1010.3
20260905061657 83 182 0.0 0.0 0.00 0.00 0.00 78 1010.3
20260905061157 83 180 0.0 0.0 0.00 0.00 0.00 78 1010.3
20260905060657 83 178 0.0 0.0 0.00 0.00 0.00 78 1010.3
20260905060156 83 175 0.0 0.0 0.00 0.00 0.00 79 1010.3
20260905055656 83 169 0.0 0.0 0.00 0.00 0.00 79 1010.3
20260905055156 83 164 0.0 0.0 0.00 0.00 0.00 78 1010.4
20260905054656 83 163 0.0 0.0 0.00 0.00 0.00 78 1010.4
20260905054155 83 161 0.0 0.0 0.00 0.00 0.00 78 1010.5
20260905053655 83 161 0.0 0.0 0.00 0.00 0.00 78 1010.5
20260905053155 83 160 0.0 0.0 0.00 0.00 0.00 78 1010.5
20260905052654 83 160 0.0 0.0 0.00 0.00 0.00 78 1010.5
20260905052154 83 160 0.0 0.0 0.00 0.00 0.00 78 1010.6
20260905051654 83 160 0.0 0.0 0.00 0.00 0.00 77 1010.6
20260905051154 83 160 0.0 0.0 0.00 0.00 0.00 77 1010.6
20260905050653 84 160 0.0 0.0 0.00 0.00 0.00 77 1010.7
20260905050153 84 160 0.0 0.0 0.00 0.00 0.00 77 1010.7
20260905045653 84 160 0.0 0.0 0.00 0.00 0.00 76 1010.7
20260905045152 84 160 0.0 0.0 0.00 0.00 0.00 75 1010.8
20260905044652 85 159 0.0 0.0 0.00 0.00 0.00 75 1010.8
20260905044152 85 160 0.0 0.0 0.00 0.00 0.00 75 1010.8
20260905043652 85 160 0.0 0.0 0.00 0.00 0.00 75 1010.9
20260905043151 85 160 0.0 0.0 0.00 0.00 0.00 74 1010.9
20260905042651 86 160 0.0 0.0 0.00 0.00 0.00 74 1010.9
20260905042151 86 160 0.0 0.0 0.00 0.00 0.00 72 1010.9
20260905041650 86 160 0.0 0.0 0.00 0.00 0.00 72 1010.9
20260905041150 86 159 0.0 0.0 0.00 0.00 0.00 71 1010.9
20260905040650 86 159 0.0 0.0 0.00 0.00 0.00 71 1010.9
20260905040149 86 160 0.0 0.0 0.00 0.00 0.00 71 1010.9
20260905035649 86 160 0.0 0.0 0.00 0.00 0.00 71 1010.8
20260905035149 86 159 0.0 0.0 0.00 0.00 0.00 71 1010.8
20260905034649 86 159 0.0 0.0 0.00 0.00 0.00 69 1010.8
20260905034148 86 160 0.0 0.0 0.00 0.00 0.00 70 1010.9
20260905033648 86 160 0.0 0.0 0.00 0.00 0.00 69 1010.9
20260905033148 86 160 0.0 0.0 0.00 0.00 0.00 70 1010.9
20260905032647 86 159 0.0 0.0 0.00 0.00 0.00 70 1010.9
20260905032147 86 159 0.0 0.0 0.00 0.00 0.00 70 1010.9
20260905031647 86 160 0.0 0.0 0.00 0.00 0.00 70 1010.9
20260905031147 86 160 0.0 0.0 0.00 0.00 0.00 70 1010.9
20260905030646 86 160 0.0 0.0 0.00 0.00 0.00 70 1010.9
20260905030146 86 160 0.0 0.0 0.00 0.00 0.00 71 1010.8
20260905025646 87 160 0.0 0.0 0.00 0.00 0.00 71 1010.8
20260905025145 87 159 0.0 0.0 0.00 0.00 0.00 71 1010.9
20260905024645 86 160 0.0 0.0 0.00 0.00 0.00 71 1010.8
20260905024145 86 160 0.0 0.0 0.00 0.00 0.00 71 1010.8
20260905023644 86 159 0.0 0.0 0.00 0.00 0.00 69 1010.9
20260905023144 86 159 0.0 0.0 0.00 0.00 0.00 70 1010.9
20260905022644 87 159 0.0 0.0 0.00 0.00 0.00 69 1010.9
20260905022144 87 160 0.0 0.0 0.00 0.00 0.00 69 1010.9
20260905021643 87 160 0.0 0.0 0.00 0.00 0.00 69 1010.8
20260905021143 87 159 0.0 0.0 0.00 0.00 0.00 69 1010.8
20260905020643 87 159 0.0 0.0 0.00 0.00 0.00 68 1010.8
20260905020142 88 160 0.0 0.0 0.00 0.00 0.00 66 1010.8
20260905015642 89 160 0.0 0.0 0.00 0.00 0.00 64 1010.8
20260905015142 89 160 0.0 0.0 0.00 0.00 0.00 64 1010.7
20260905014642 89 160 0.0 0.0 0.00 0.00 0.00 64 1010.7
20260905014141 90 159 0.0 0.0 0.00 0.00 0.00 64 1010.5
20260905013641 90 159 0.0 0.0 0.00 0.00 0.00 64 1010.5
20260905013141 90 159 0.0 0.0 0.00 0.00 0.00 64 1010.5
20260905012640 89 159 0.0 0.0 0.00 0.00 0.00 64 1010.4
20260905012140 89 159 0.0 0.0 0.00 0.00 0.00 63 1010.4
20260905011640 89 159 0.0 0.0 0.00 0.00 0.00 63 1010.4
20260905011139 89 159 0.0 0.0 0.00 0.00 0.00 65 1010.3
20260905010639 89 159 0.0 0.0 0.00 0.00 0.00 64 1010.4
20260905010139 89 159 0.0 0.0 0.00 0.00 0.00 63 1010.3
20260905005639 89 159 0.0 0.0 0.00 0.00 0.00 63 1010.3
20260905005138 89 159 0.0 0.0 0.00 0.00 0.00 64 1010.2
20260905004638 89 159 0.0 0.0 0.00 0.00 0.00 63 1010.3
20260905004138 89 159 0.0 0.0 0.00 0.00 0.00 64 1010.2
20260905003637 90 159 0.0 0.0 0.00 0.00 0.00 64 1010.2
20260905003137 90 159 0.0 0.0 0.00 0.00 0.00 64 1010.1
20260905002637 91 160 0.0 0.0 0.00 0.00 0.00 62 1010.2
20260905002137 92 165 0.0 0.0 0.00 0.00 0.00 62 1010.1
20260905001636 92 191 0.0 0.0 0.00 0.00 0.00 60 1010.1
20260905001136 92 191 0.0 0.0 0.00 0.00 0.00 59 1010.1
20260905000636 93 191 0.0 0.0 0.00 0.00 0.00 56 1010.0
20260905000135 93 191 0.0 0.0 0.00 0.00 0.00 56 1010.0
20260904235635 94 191 0.0 0.0 0.00 0.00 0.00 55 1009.9
20260904235135 94 191 0.0 0.0 0.00 0.00 0.00 52 1009.9
20260904234635 94 191 0.0 0.0 0.00 0.00 0.00 51 1009.9
20260904234134 94 191 0.0 0.0 0.00 0.00 0.00 51 1010.0
20260904233634 94 191 0.0 0.0 0.00 0.00 0.00 50 1010.0
20260904233134 94 190 0.0 0.0 0.00 0.00 0.00 50 1010.0
20260904232633 94 188 0.0 0.0 0.00 0.00 0.00 50 1009.9
20260904232133 95 187 0.0 0.0 0.00 0.00 0.00 49 1009.9
20260904231633 95 169 0.0 0.0 0.00 0.00 0.00 49 1009.8
20260904231133 95 202 0.0 0.0 0.00 0.00 0.00 48 1009.9
20260904230632 95 187 0.0 0.0 0.00 0.00 0.00 48 1009.9
20260904230132 96 169 0.0 0.0 0.00 0.00 0.00 47 1009.9
20260904225632 96 165 0.0 0.0 0.00 0.00 0.00 48 1009.9
20260904225131 96 174 0.0 0.0 0.00 0.00 0.00 48 1010.0
20260904224631 96 229 0.0 0.0 0.00 0.00 0.00 47 1010.0
20260904224131 97 276 0.0 0.0 0.00 0.00 0.00 47 1010.1
20260904223630 97 225 0.0 0.0 0.00 0.00 0.00 47 1010.0
20260904223130 97 205 0.0 0.0 0.00 0.00 0.00 47 1010.0
20260904222630 97 144 0.0 0.0 0.00 0.00 0.00 46 1010.1
20260904222130 97 180 0.0 0.0 0.00 0.00 0.00 47 1010.1
20260904221629 96 221 0.0 0.0 0.00 0.00 0.00 45 1010.0
20260904221129 97 223 0.0 0.0 0.00 0.00 0.00 46 1010.0
20260904220629 97 165 0.0 0.0 0.00 0.00 0.00 46 1010.0
20260904220128 97 209 0.0 0.0 0.00 0.00 0.00 45 1010.0
20260904215628 97 224 0.0 0.0 0.00 0.00 0.00 46 1010.1
20260904215128 96 208 0.0 0.0 0.00 0.00 0.00 47 1010.1
20260904214628 96 252 0.0 0.0 0.00 0.00 0.00 47 1010.1
20260904214127 96 272 0.0 0.0 0.00 0.00 0.00 46 1010.2
20260904213627 96 313 0.0 0.0 0.00 0.00 0.00 46 1010.2
20260904213127 96 301 0.0 0.0 0.00 0.00 0.00 46 1010.3
20260904212626 96 325 0.0 0.0 0.00 0.00 0.00 46 1010.3
20260904212126 96 240 0.0 0.0 0.00 0.00 0.00 46 1010.3
20260904211626 96 222 0.0 0.0 0.00 0.00 0.00 46 1010.4
20260904211125 96 330 0.0 0.0 0.00 0.00 0.00 47 1010.4
20260904210625 96 309 0.0 0.0 0.00 0.00 0.00 47 1010.5
20260904210125 96 267 0.0 0.0 0.00 0.00 0.00 46 1010.5
20260904205625 96 271 0.0 0.0 0.00 0.00 0.00 46 1010.6
20260904205124 96 212 0.0 0.0 0.00 0.00 0.00 47 1010.6
20260904204624 96 225 0.0 0.0 0.00 0.00 0.00 48 1010.7
20260904204124 96 294 0.0 0.0 0.00 0.00 0.00 47 1010.8
20260904203623 95 258 0.0 0.0 0.00 0.00 0.00 49 1010.8
20260904203123 95 293 0.0 0.0 0.00 0.00 0.00 50 1010.8
20260904202623 95 286 0.0 0.0 0.00 0.00 0.00 50 1010.9
20260904202123 95 307 0.0 0.0 0.00 0.00 0.00 50 1010.9
20260904201622 95 355 0.0 0.0 0.00 0.00 0.00 49 1011.0
20260904201122 95 252 0.0 0.0 0.00 0.00 0.00 51 1011.0
20260904200622 95 284 0.0 0.0 0.00 0.00 0.00 48 1011.1
20260904200121 96 286 0.0 0.0 0.00 0.00 0.00 48 1011.2
20260904195621 96 275 0.0 0.0 0.00 0.00 0.00 46 1011.2
20260904195121 96 279 0.0 0.0 0.00 0.00 0.00 48 1011.3
20260904194621 96 203 0.0 0.0 0.00 0.00 0.00 48 1011.4
20260904194120 96 327 0.0 0.0 0.00 0.00 0.00 48 1011.5
20260904193620 96 227 0.0 0.0 0.00 0.00 0.00 49 1011.7
20260904193120 95 215 0.0 0.0 0.00 0.00 0.00 49 1011.7
20260904192619 95 294 0.0 0.0 0.00 0.00 0.00 49 1011.9
20260904192119 95 292 0.0 0.0 0.00 0.00 0.00 49 1011.9
20260904191619 95 0 0.0 0.0 0.00 0.00 0.00 51 1011.9
20260904191118 95 0 0.0 0.0 0.00 0.00 0.00 52 1012.0
20260904190618 95 310 0.0 0.0 0.00 0.00 0.00 51 1012.1
20260904190118 95 225 0.0 0.0 0.00 0.00 0.00 50 1012.2
20260904185618 95 233 0.0 0.0 0.00 0.00 0.00 52 1012.3
20260904185117 95 275 0.0 0.0 0.00 0.00 0.00 52 1012.3
20260904184617 94 0 0.0 0.0 0.00 0.00 0.00 52 1012.4
20260904184117 95 195 0.0 0.0 0.00 0.00 0.00 52 1012.4
20260904183616 95 0 0.0 0.0 0.00 0.00 0.00 52 1012.4
20260904183116 95 267 0.0 0.0 0.00 0.00 0.00 52 1012.4
20260904182616 95 312 0.0 0.0 0.00 0.00 0.00 53 1012.4
20260904182116 95 277 0.0 0.0 0.00 0.00 0.00 53 1012.5
20260904181615 94 246 0.0 0.0 0.00 0.00 0.00 53 1012.5
20260904181115 94 320 0.0 0.0 0.00 0.00 0.00 52 1012.6
20260904180615 94 252 0.0 0.0 0.00 0.00 0.00 51 1012.7
20260904180114 94 215 0.0 0.0 0.00 0.00 0.00 53 1012.9
20260904175614 94 309 0.0 0.0 0.00 0.00 0.00 53 1013.0
20260904175114 94 285 0.0 0.0 0.00 0.00 0.00 53 1012.9
20260904174613 94 273 0.0 0.0 0.00 0.00 0.00 54 1013.1
20260904174113 94 0 0.0 0.0 0.00 0.00 0.00 53 1013.1
20260904173613 94 232 0.0 0.0 0.00 0.00 0.00 54 1013.1